Schneifelwetter: Wetterstation Hallschlag, 537 m . NN
Wetterdaten: Samstag, 25.06.2011
Datum Zeit Temp. A. Feuchte A. Luftdruck Regen Wind Richtung Richtung Sonnenschein Helligkeit T Regen Taupunkt Windchill
25.06.2011 00:10 7,6 C 87 % 1023 hPa 0,0 l/m 0,0 km/h (0 Bft) NW 325 0 min 0 lux 0,00 min 5,6 C 7,6 C
25.06.2011 00:25 7,6 C 88 % 1023 hPa 0,0 l/m 0,0 km/h (0 Bft) N-NW 330 0 min 0 lux 0,00 min 5,7 C 7,6 C
25.06.2011 00:40 7,5 C 88 % 1023 hPa 0,0 l/m 0,0 km/h (0 Bft) NW 325 0 min 0 lux 0,00 min 5,6 C 7,5 C
25.06.2011 00:55 7,6 C 89 % 1023 hPa 0,0 l/m 0,0 km/h (0 Bft) NW 325 0 min 0 lux 0,00 min 5,9 C 7,6 C
25.06.2011 01:10 7,5 C 90 % 1023 hPa 0,0 l/m 0,0 km/h (0 Bft) NW 325 0 min 0 lux 0,00 min 6,0 C 7,5 C
25.06.2011 01:25 7,4 C 90 % 1023 hPa 0,0 l/m 0,0 km/h (0 Bft) NW 325 0 min 0 lux 0,00 min 5,9 C 7,4 C
25.06.2011 01:40 7,5 C 90 % 1023 hPa 0,0 l/m 0,0 km/h (0 Bft) NW 325 0 min 0 lux 0,00 min 6,0 C 7,5 C
25.06.2011 01:55 7,5 C 90 % 1023 hPa 0,0 l/m 0,0 km/h (0 Bft) NW 325 0 min 0 lux 0,00 min 6,0 C 7,5 C
25.06.2011 02:10 7,6 C 90 % 1023 hPa 0,0 l/m 0,0 km/h (0 Bft) NW 325 0 min 0 lux 0,00 min 6,1 C 7,6 C
25.06.2011 02:25 7,5 C 90 % 1023 hPa 0,0 l/m 0,0 km/h (0 Bft) NW 325 0 min 0 lux 0,00 min 6,0 C 7,5 C
25.06.2011 02:40 7,5 C 90 % 1023 hPa 0,0 l/m 0,0 km/h (0 Bft) NW 325 0 min 0 lux 0,00 min 6,0 C 7,5 C
25.06.2011 02:55 7,5 C 90 % 1023 hPa 0,0 l/m 0,0 km/h (0 Bft) NW 325 0 min 0 lux 0,00 min 6,0 C 7,5 C
25.06.2011 03:10 7,6 C 91 % 1023 hPa 0,0 l/m 0,0 km/h (0 Bft) NW 325 0 min 0 lux 0,00 min 6,2 C 7,6 C
25.06.2011 03:25 7,7 C 91 % 1023 hPa 0,0 l/m 0,0 km/h (0 Bft) NW 325 0 min 0 lux 0,00 min 6,3 C 7,7 C
25.06.2011 03:40 7,7 C 91 % 1023 hPa 0,0 l/m 0,4 km/h (0 Bft) N-NW 330 0 min 0 lux 0,00 min 6,3 C 7,7 C
25.06.2011 03:55 7,9 C 92 % 1023 hPa 0,0 l/m 6,7 km/h (2 Bft) W-SW 240 0 min 0 lux 0,00 min 6,7 C 7,7 C
25.06.2011 04:10 8,1 C 92 % 1023 hPa 0,0 l/m 10,3 km/h (2 Bft) W-SW 240 0 min 0 lux 0,00 min 6,9 C 5,3 C
25.06.2011 04:25 8,2 C 92 % 1022 hPa 0,0 l/m 7,4 km/h (2 Bft) W-SW 240 0 min 0 lux 0,00 min 7,0 C 7,4 C
25.06.2011 04:40 8,3 C 92 % 1023 hPa 0,0 l/m 7,9 km/h (2 Bft) W-SW 245 0 min 0 lux 0,00 min 7,1 C 7,1 C
25.06.2011 04:55 8,4 C 91 % 1023 hPa 0,0 l/m 7,4 km/h (2 Bft) W-SW 240 0 min 0 lux 0,00 min 7,0 C 7,6 C
25.06.2011 05:10 8,4 C 91 % 1023 hPa 0,0 l/m 6,9 km/h (2 Bft) W-SW 240 0 min 113 lux 0,00 min 7,0 C 8,0 C
25.06.2011 05:25 8,4 C 91 % 1023 hPa 0,0 l/m 1,2 km/h (1 Bft) W-SW 240 0 min 336 lux 0,00 min 7,0 C 8,4 C
25.06.2011 05:40 8,3 C 91 % 1023 hPa 0,0 l/m 5,9 km/h (2 Bft) W-SW 240 0 min 787 lux 0,00 min 6,9 C 8,3 C
25.06.2011 05:55 8,3 C 91 % 1023 hPa 0,0 l/m 8,3 km/h (2 Bft) W-SW 240 0 min 1,48 klux 0,00 min 6,9 C 6,9 C
25.06.2011 06:10 8,4 C 91 % 1023 hPa 0,0 l/m 8,7 km/h (2 Bft) W-SW 240 0 min 2,69 klux 0,00 min 7,0 C 6,7 C
25.06.2011 06:25 8,4 C 92 % 1022 hPa 0,0 l/m 12,1 km/h (2 Bft) W-SW 240 0 min 4,05 klux 0,00 min 7,2 C 4,6 C
25.06.2011 06:40 8,6 C 92 % 1023 hPa 0,0 l/m 12,7 km/h (3 Bft) W-SW22.5 250 0 min 4,50 klux 0,00 min 7,4 C 4,5 C
25.06.2011 06:55 8,9 C 91 % 1022 hPa 0,0 l/m 13,1 km/h (3 Bft) W-SW 250 0 min 7,84 klux 0,00 min 7,5 C 4,7 C
25.06.2011 07:10 9,2 C 90 % 1023 hPa 0,0 l/m 14,6 km/h (3 Bft) W-SW 250 0 min 7,17 klux 0,00 min 7,6 C 4,3 C
25.06.2011 07:26 9,3 C 89 % 1023 hPa 0,0 l/m 12,7 km/h (3 Bft) W 265 0 min 7,74 klux 0,00 min 7,6 C 5,4 C
25.06.2011 07:41 9,4 C 88 % 1023 hPa 0,0 l/m 12,5 km/h (3 Bft) W-SW22.5 240 0 min 7,55 klux 0,00 min 7,5 C 5,6 C
25.06.2011 07:56 9,4 C 88 % 1023 hPa 0,0 l/m 14,6 km/h (3 Bft) W-SW22.5 240 0 min 7,25 klux 0,00 min 7,5 C 4,6 C
25.06.2011 08:11 9,4 C 88 % 1023 hPa 0,0 l/m 15,8 km/h (3 Bft) W 260 0 min 11,5 klux 0,00 min 7,5 C 4,1 C
25.06.2011 08:31 9,7 C 86 % 1023 hPa 0,0 l/m 12,5 km/h (3 Bft) W-SW45 240 0 min 10,9 klux 0,00 min 7,5 C 5,9 C
25.06.2011 08:46 9,7 C 86 % 1023 hPa 0,0 l/m 15,8 km/h (3 Bft) SW67.5 235 0 min 7,17 klux 0,00 min 7,5 C 4,4 C
25.06.2011 09:01 9,8 C 86 % 1023 hPa 0,0 l/m 19,3 km/h (3 Bft) W45 260 0 min 10,1 klux 0,00 min 7,6 C 3,3 C
25.06.2011 09:16 9,6 C 86 % 1023 hPa 0,0 l/m 21,4 km/h (4 Bft) W-SW45 250 0 min 8,25 klux 0,00 min 7,4 C 2,3 C
25.06.2011 09:32 9,4 C 87 % 1023 hPa 0,0 l/m 19,9 km/h (4 Bft) W-SW45 240 0 min 8,53 klux 0,00 min 7,3 C 2,5 C
25.06.2011 09:47 9,4 C 88 % 1023 hPa 0,0 l/m 15,3 km/h (3 Bft) W-SW22.5 250 0 min 9,8 klux 0,00 min 7,5 C 4,3 C
25.06.2011 10:01 9,4 C 89 % 1023 hPa 0,3 l/m 15,7 km/h (3 Bft) W-SW67.5 245 0 min 8,34 klux 14,00 min 7,7 C 4,1 C
25.06.2011 10:16 9,3 C 90 % 1023 hPa 0,0 l/m 17,9 km/h (3 Bft) W45 260 0 min 7,88 klux 0,00 min 7,7 C 3,1 C
25.06.2011 10:31 9,7 C 91 % 1023 hPa 0,0 l/m 20,5 km/h (4 Bft) W-SW45 255 0 min 16,8 klux 0,00 min 8,3 C 2,7 C
25.06.2011 10:46 10,0 C 91 % 1023 hPa 0,0 l/m 14,1 km/h (3 Bft) W-SW22.5 255 0 min 17,6 klux 0,00 min 8,6 C 5,5 C
25.06.2011 11:01 10,6 C 92 % 1023 hPa 0,0 l/m 17,1 km/h (3 Bft) SW45 230 0 min 27,0 klux 0,00 min 9,4 C 5,0 C
25.06.2011 11:17 11,1 C 91 % 1023 hPa 0,0 l/m 27,1 km/h (4 Bft) W-SW45 250 0 min 29,6 klux 0,00 min 9,7 C 2,8 C
25.06.2011 11:32 11,7 C 89 % 1023 hPa 0,0 l/m 22,9 km/h (4 Bft) SW45 225 0 min 50,6 klux 0,00 min 9,9 C 4,7 C
25.06.2011 11:46 12,6 C 88 % 1023 hPa 0,0 l/m 28,3 km/h (4 Bft) W-SW45 250 0 min 50,1 klux 0,00 min 10,7 C 4,6 C
25.06.2011 12:01 12,4 C 86 % 1023 hPa 0,0 l/m 27,6 km/h (4 Bft) W-SW45 250 0 min 33,3 klux 0,00 min 10,1 C 4,5 C
25.06.2011 12:17 12,2 C 85 % 1023 hPa 0,0 l/m 31,5 km/h (5 Bft) SW67.5 225 0 min 32,6 klux 0,00 min 9,8 C 3,5 C
25.06.2011 12:30 11,9 C 85 % 1023 hPa 0,0 l/m 24,5 km/h (4 Bft) W-SW45 245 0 min 19,8 klux 0,00 min 9,5 C 4,5 C
25.06.2011 12:45 11,6 C 85 % 1023 hPa 0,0 l/m 22,4 km/h (4 Bft) SW45 215 0 min 13,5 klux 0,00 min 9,2 C 4,7 C
25.06.2011 13:00 11,2 C 87 % 1023 hPa 0,0 l/m 30,3 km/h (5 Bft) SW22.5 215 0 min 10,0 klux 0,00 min 9,1 C 2,3 C
25.06.2011 13:15 11,0 C 88 % 1023 hPa 0,3 l/m 21,3 km/h (4 Bft) SW45 225 0 min 13,9 klux 15,00 min 9,1 C 4,2 C
25.06.2011 13:30 11,2 C 89 % 1022 hPa 0,0 l/m 24,2 km/h (4 Bft) SW45 230 0 min 19,8 klux 0,00 min 9,5 C 3,7 C
25.06.2011 13:45 11,4 C 89 % 1022 hPa 0,0 l/m 23,2 km/h (4 Bft) SW67.5 235 0 min 15,0 klux 0,00 min 9,7 C 4,2 C
25.06.2011 14:00 11,6 C 89 % 1022 hPa 0,0 l/m 27,1 km/h (4 Bft) SW45 230 0 min 28,4 klux 0,00 min 9,8 C 3,5 C
25.06.2011 14:15 12,2 C 88 % 1022 hPa 0,0 l/m 39,1 km/h (6 Bft) W-SW67.5 245 0 min 32,0 klux 0,00 min 10,3 C 2,3 C
25.06.2011 14:30 12,2 C 86 % 1022 hPa 0,0 l/m 29,9 km/h (5 Bft) SW45 230 0 min 22,7 klux 0,00 min 9,9 C 3,8 C
25.06.2011 14:45 12,5 C 87 % 1022 hPa 0,0 l/m 34,3 km/h (5 Bft) SW67.5 220 0 min 33,9 klux 0,00 min 10,4 C 3,4 C
25.06.2011 15:00 13,3 C 86 % 1022 hPa 0,0 l/m 28,7 km/h (4 Bft) W-SW45 255 0 min 44,1 klux 0,00 min 11,0 C 5,5 C
25.06.2011 15:15 13,5 C 84 % 1022 hPa 0,0 l/m 28,8 km/h (4 Bft) W-SW45 250 0 min 38,6 klux 0,00 min 10,8 C 5,8 C
25.06.2011 15:30 13,6 C 84 % 1022 hPa 0,0 l/m 35,6 km/h (5 Bft) W-SW22.5 240 0 min 35,9 klux 0,00 min 10,9 C 4,8 C
25.06.2011 15:45 13,6 C 85 % 1022 hPa 0,0 l/m 28,5 km/h (4 Bft) W-SW45 250 0 min 28,3 klux 0,00 min 11,1 C 6,0 C
25.06.2011 16:00 13,0 C 86 % 1022 hPa 0,0 l/m 29,0 km/h (5 Bft) W-SW45 250 0 min 22,0 klux 0,00 min 10,7 C 5,1 C
25.06.2011 16:15 12,8 C 88 % 1022 hPa 0,0 l/m 24,0 km/h (4 Bft) W-SW45 250 0 min 11,8 klux 0,00 min 10,9 C 5,9 C
25.06.2011 16:29 12,7 C 89 % 1022 hPa 0,0 l/m 17,1 km/h (3 Bft) W-SW45 240 0 min 14,7 klux 0,00 min 10,9 C 7,7 C
25.06.2011 16:45 12,8 C 89 % 1022 hPa 0,0 l/m 20,9 km/h (4 Bft) W-SW22.5 255 0 min 10,0 klux 0,00 min 11,0 C 6,7 C
25.06.2011 17:00 12,8 C 89 % 1022 hPa 0,0 l/m 16,5 km/h (3 Bft) W-SW 255 0 min 12,8 klux 0,00 min 11,0 C 8,0 C
25.06.2011 17:15 13,1 C 89 % 1022 hPa 0,0 l/m 16,3 km/h (3 Bft) W-SW22.5 255 0 min 15,6 klux 0,00 min 11,3 C 8,4 C
25.06.2011 17:30 13,8 C 88 % 1022 hPa 0,0 l/m 17,3 km/h (3 Bft) W-SW45 245 0 min 18,4 klux 0,00 min 11,8 C 9,0 C
25.06.2011 17:45 14,3 C 87 % 1022 hPa 0,0 l/m 20,2 km/h (4 Bft) W22.5 260 0 min 22,5 klux 0,00 min 12,2 C 8,8 C
25.06.2011 18:00 14,9 C 86 % 1022 hPa 0,0 l/m 22,0 km/h (4 Bft) W-SW45 240 0 min 33,8 klux 0,00 min 12,6 C 9,1 C
25.06.2011 18:15 14,8 C 86 % 1022 hPa 0,0 l/m 23,0 km/h (4 Bft) W22.5 260 0 min 15,8 klux 0,00 min 12,5 C 8,8 C
25.06.2011 18:30 14,8 C 86 % 1021 hPa 0,0 l/m 23,6 km/h (4 Bft) W-SW45 250 0 min 15,3 klux 0,00 min 12,5 C 8,6 C
25.06.2011 18:45 14,8 C 86 % 1022 hPa 0,0 l/m 18,8 km/h (3 Bft) W-SW67.5 255 0 min 15,6 klux 0,00 min 12,5 C 9,8 C
25.06.2011 19:00 15,0 C 86 % 1022 hPa 0,0 l/m 20,3 km/h (4 Bft) W-SW45 255 0 min 13,7 klux 0,00 min 12,7 C 9,7 C
25.06.2011 19:15 15,0 C 86 % 1022 hPa 0,0 l/m 20,6 km/h (4 Bft) W-SW22.5 250 0 min 15,1 klux 0,00 min 12,7 C 9,6 C
25.06.2011 19:30 15,2 C 86 % 1022 hPa 0,0 l/m 17,3 km/h (3 Bft) W-SW22.5 250 0 min 16,1 klux 0,00 min 12,9 C 10,7 C
25.06.2011 19:45 15,4 C 86 % 1022 hPa 0,0 l/m 18,9 km/h (3 Bft) W-SW 255 0 min 15,6 klux 0,00 min 13,1 C 10,5 C
25.06.2011 20:00 15,2 C 86 % 1022 hPa 0,0 l/m 14,4 km/h (3 Bft) W-SW22.5 245 0 min 9,5 klux 0,00 min 12,9 C 11,6 C
25.06.2011 20:15 15,0 C 87 % 1022 hPa 0,0 l/m 10,8 km/h (2 Bft) SW22.5 235 0 min 4,93 klux 0,00 min 12,9 C 12,8 C
25.06.2011 20:30 15,0 C 87 % 1022 hPa 0,0 l/m 10,5 km/h (2 Bft) W-SW22.5 250 0 min 2,53 klux 0,00 min 12,9 C 12,9 C
25.06.2011 20:45 14,9 C 88 % 1022 hPa 0,0 l/m 3,8 km/h (1 Bft) W-SW 245 0 min 2,17 klux 0,00 min 12,9 C 14,9 C
25.06.2011 21:00 14,8 C 88 % 1022 hPa 0,0 l/m 0,2 km/h (0 Bft) W-SW 245 0 min 1,37 klux 0,00 min 12,8 C 14,8 C
25.06.2011 21:15 14,7 C 89 % 1022 hPa 0,0 l/m 0,0 km/h (0 Bft) W-SW 245 0 min 1,27 klux 0,00 min 12,9 C 14,7 C
25.06.2011 21:30 14,6 C 89 % 1022 hPa 0,0 l/m 0,0 km/h (0 Bft) W-SW 245 0 min 358 lux 0,00 min 12,8 C 14,6 C
25.06.2011 21:45 14,5 C 90 % 1022 hPa 0,0 l/m 10,0 km/h (2 Bft) W-SW45 240 0 min 212 lux 0,00 min 12,9 C 12,6 C
25.06.2011 22:00 14,6 C 91 % 1022 hPa 0,0 l/m 25,8 km/h (4 Bft) W45 270 0 min 96 lux 0,00 min 13,1 C 7,9 C
25.06.2011 22:15 14,8 C 91 % 1022 hPa 0,0 l/m 28,3 km/h (4 Bft) W22.5 265 0 min 27 lux 0,00 min 13,3 C 7,7 C
25.06.2011 22:30 14,7 C 91 % 1023 hPa 0,0 l/m 27,1 km/h (4 Bft) W45 270 0 min 7 lux 0,00 min 13,2 C 7,8 C
25.06.2011 22:45 14,7 C 91 % 1022 hPa 0,0 l/m 15,1 km/h (3 Bft) W-SW 255 0 min 0 lux 0,00 min 13,2 C 10,8 C
25.06.2011 23:00 14,6 C 92 % 1022 hPa 0,0 l/m 15,1 km/h (3 Bft) W-SW45 250 0 min 0 lux 0,00 min 13,3 C 10,7 C
25.06.2011 23:15 14,5 C 92 % 1022 hPa 0,0 l/m 17,6 km/h (3 Bft) W-SW22.5 250 0 min 0 lux 0,00 min 13,2 C 9,8 C
25.06.2011 23:30 14,5 C 92 % 1022 hPa 0,0 l/m 17,6 km/h (3 Bft) W-SW45 255 0 min 0 lux 0,00 min 13,2 C 9,8 C
25.06.2011 23:45 14,5 C 93 % 1022 hPa 0,0 l/m 17,5 km/h (3 Bft) W45 265 0 min 0 lux 0,00 min 13,4 C 9,8 C
_ Min-Zeit 01:25 15:15 18:30 - 00:10 - - - - - 00:10 14:15
Minimum _ 7,4 C 84 % 1021 hPa - 0,0 km/h (0 Bft) - - - - - 5,6 C 2,3 C
_ Max-Zeit 19:45 23:45 00:10 10:01 14:15 - - 00:10 11:32 13:15 23:45 20:45
Maximum _ 15,4 C 93 % 1023 hPa 0,3 l/m 39,1 km/h
W-SW (6 Bft)
- - 0 min 50,6 klux 15,00 min 13,4 C 14,9 C
Durchschnitt _ 11,2 C 89 % 1023 hPa #0,6 l/m 15,2 km/h (3 Bft) W-SW - #0 min. 10,9 klux #29 min. 9,4 C 7,0 C